IRNSS-1C                
1 40269U 14061A   19258.88452017 -.00000172  00000-0  00000-0 0  9994
2 40269   1.8965 200.8036 0021017  13.8425 181.4380  1.00273312 17951
PSLV R/B                
1 40270U 14061B   19258.37977732  .00001361  00000-0  30173-3 0  9993
2 40270  17.7452 263.4711 5969878 348.4262   2.3336  4.08279541 72361